Location: Newark
(46.7000°N, 60.6000°W)
Time: 08:15:10
(UTC+00:00)

Vanguard 3 - Pass Details

Date: 05 November 2020
Orbit: 508 x 3262 km, 33.3° (Epoch: 29 November)

Event Time Altitude Azimuth Distance (km) Brightness Sun altitude
Rises 14:25:03 0° 277° (W) 7,120 11.7 24.8°
Reaches altitude 10° 14:31:55 10° 263° (W) 6,201 11.6 25.2°
Maximum altitude 14:43:29 19° 227° (SW) 5,248 11.8 25.8°
Drops below altitude 10° 14:53:56 10° 189° (S) 5,473 12.7 26.3°
Sets 14:59:30 0° 173° (S) 6,051 12.9 26.5°
